This is the latest recevied weather packets stored in our database for station/object KD9ZDW. If no packets are shown the sender has not sent any weather packets the latest 10 day(s).
| Time | Temp. | Humidity | Pressure | Rain* | Wind** | Luminosity | Snow |
|---|---|---|---|---|---|---|---|
| 1777858826 | 9.44° C | 78% | 1012.2 hPa | 0 mm | - | 0 W/m² | - |
| 1777858524 | 9.44° C | 78% | 1012.4 hPa | 0 mm | - | 0 W/m² | - |
| 1777858220 | 10° C | 77% | 1012.4 hPa | 0 mm | - | 0 W/m² | - |
| 1777857918 | 10° C | 77% | 1012.5 hPa | 0 mm | - | 0 W/m² | - |
| 1777857616 | 10° C | 77% | 1012.4 hPa | 0 mm | - | 0 W/m² | - |
| 1777857312 | 10° C | 76% | 1012.5 hPa | 0 mm | - | 0 W/m² | - |
| 1777857008 | 10° C | 76% | 1012.4 hPa | 0 mm | - | 0 W/m² | - |
| 1777856704 | 10° C | 76% | 1012.4 hPa | 0 mm | - | 0 W/m² | - |
| 1777856400 | 10° C | 76% | 1012.5 hPa | 0 mm | - | 0 W/m² | - |
| 1777856097 | 10° C | 77% | 1012.4 hPa | 0 mm | - | 0 W/m² | - |
| 1777855794 | 10° C | 77% | 1012.6 hPa | 0 mm | - | 0 W/m² | - |
| 1777855492 | 10° C | 77% | 1012.5 hPa | 0 mm | - | 1 W/m² | - |
| 1777855189 | 10° C | 77% | 1012.7 hPa | 0 mm | - | 1 W/m² | - |
| 1777854885 | 10° C | 77% | 1012.6 hPa | 0 mm | - | 2 W/m² | - |
| 1777854582 | 10° C | 77% | 1012.8 hPa | 0 mm | - | 2 W/m² | - |
| 1777854279 | 10° C | 77% | 1012.9 hPa | 0 mm | - | 2 W/m² | - |
| 1777853976 | 10° C | 78% | 1012.8 hPa | 0 mm | - | 2 W/m² | - |
| 1777853673 | 10° C | 78% | 1012.8 hPa | 0 mm | - | 4 W/m² | - |
| 1777853370 | 10° C | 78% | 1012.8 hPa | 0 mm | - | 7 W/m² | - |
| 1777853067 | 10° C | 77% | 1012.8 hPa | 0 mm | - | 11 W/m² | - |
| 1777852764 | 10° C | 77% | 1013 hPa | 0 mm | - | 17 W/m² | - |
| 1777852462 | 10° C | 77% | 1013 hPa | 0 mm | - | 30 W/m² | - |
| 1777852159 | 10° C | 76% | 1013 hPa | 0 mm | - | 35 W/m² | - |
| 1777851857 | 10° C | 76% | 1013.2 hPa | 0 mm | - | 32 W/m² | - |
| 1777851554 | 10° C | 76% | 1013 hPa | 0 mm | - | 24 W/m² | - |
* Rain latest hour (hover to see other rain measurements)
** Current wind speed in m/s (hover to see current wind gust speed)